When you browse on this site, cookies collect data to enhance your experience and personalize the content and advertising you see.
Visit our Privacy Policy to learn more. By continuing to use the site, you agree to this use of cookies and data.
  • In Österreich
  • Länderverzeichnis
  • Für 7 Tage
  • Wassertemperatur
  • Satellitenkarten
  • Wetterkarte
  • News
  • Widgets
  • user-avatar
    Anmelden

    Stündliche Wetter Armawir

    Heute, 24 April, Mittwoch

    Zeit Temperatur Niederschläge Wind Luftdruck Luftfeuchtigkeit
    00:00 +7°C° 0 mm 0 m/S 693 mmHg 54%
    01:00 +6°C° 0 mm 0 m/S 693 mmHg 55%
    02:00 +6°C° 0 mm 0 m/S 693 mmHg 57%
    03:00 +5°C° 0 mm 0 m/S 693 mmHg 59%
    04:00 +5°C° 0 mm 0 m/S 694 mmHg 60%
    05:00 +6°C° 0 mm 0 m/S 694 mmHg 60%
    06:00 +7°C° 0 mm 1 m/S 694 mmHg 61%
    07:00 +8°C° 0 mm 1 m/S 694 mmHg 55%
    08:00 +10°C° 0 mm 1 m/S 694 mmHg 49%
    09:00 +11°C° 0 mm 1 m/S 694 mmHg 43%
    10:00 +12°C° 0 mm 1 m/S 693 mmHg 40%
    11:00 +13°C° 0 mm 1 m/S 693 mmHg 37%
    12:00 +14°C° 0 mm 1 m/S 693 mmHg 34%
    13:00 +15°C° 0 mm 1 m/S 692 mmHg 33%
    14:00 +15°C° 0 mm 1 m/S 692 mmHg 32%
    15:00 +16°C° 0 mm 1 m/S 692 mmHg 30%
    16:00 +15°C° 0 mm 1 m/S 692 mmHg 31%
    17:00 +15°C° 0 mm 1 m/S 692 mmHg 32%
    18:00 +15°C° 0 mm 1 m/S 692 mmHg 32%
    19:00 +13°C° 0 mm 1 m/S 692 mmHg 35%
    20:00 +12°C° 0 mm 2 m/S 692 mmHg 39%
    21:00 +10°C° 0 mm 2 m/S 692 mmHg 42%
    22:00 +10°C° 0 mm 1 m/S 692 mmHg 44%
    23:00 +10°C° 0 mm 1 m/S 693 mmHg 47%

    Morgen, 25 April, Donnerstag

    Zeit Temperatur Niederschläge Wind Luftdruck Luftfeuchtigkeit
    00:00 +9°C° 0 mm 1 m/S 693 mmHg 50%
    01:00 +9°C° 0 mm 1 m/S 693 mmHg 51%
    02:00 +8°C° 0 mm 0 m/S 693 mmHg 52%
    03:00 +7°C° 0 mm 0 m/S 693 mmHg 53%
    04:00 +7°C° 0.1 mm 0 m/S 693 mmHg 55%
    05:00 +7°C° 0.1 mm 0 m/S 693 mmHg 56%
    06:00 +7°C° 0.1 mm 0 m/S 693 mmHg 57%
    07:00 +9°C° 0.1 mm 1 m/S 693 mmHg 54%
    08:00 +10°C° 0.1 mm 1 m/S 693 mmHg 51%
    09:00 +11°C° 0.1 mm 1 m/S 693 mmHg 48%
    10:00 +12°C° 0 mm 1 m/S 693 mmHg 44%
    11:00 +14°C° 0 mm 1 m/S 692 mmHg 40%
    12:00 +15°C° 0 mm 1 m/S 692 mmHg 37%
    13:00 +15°C° 0 mm 1 m/S 692 mmHg 35%
    14:00 +16°C° 0 mm 1 m/S 692 mmHg 33%
    15:00 +16°C° 0 mm 2 m/S 691 mmHg 31%
    16:00 +16°C° 0 mm 1 m/S 691 mmHg 32%
    17:00 +15°C° 0 mm 1 m/S 691 mmHg 32%
    18:00 +15°C° 0 mm 1 m/S 691 mmHg 33%
    19:00 +14°C° 0 mm 1 m/S 692 mmHg 36%
    20:00 +12°C° 0 mm 1 m/S 692 mmHg 39%
    21:00 +11°C° 0 mm 1 m/S 692 mmHg 43%
    22:00 +10°C° 0 mm 1 m/S 693 mmHg 45%
    23:00 +9°C° 0 mm 0 m/S 693 mmHg 47%

    übermorgen, 26 April, Freitag

    Zeit Temperatur Niederschläge Wind Luftdruck Luftfeuchtigkeit
    00:00 +8°C° 0 mm 0 m/S 693 mmHg 50%
    01:00 +7°C° 0 mm 0 m/S 693 mmHg 51%
    02:00 +7°C° 0 mm 0 m/S 692 mmHg 53%
    03:00 +6°C° 0 mm 0 m/S 692 mmHg 54%
    04:00 +7°C° 0 mm 0 m/S 692 mmHg 55%
    05:00 +7°C° 0 mm 0 m/S 692 mmHg 55%
    06:00 +7°C° 0 mm 0 m/S 693 mmHg 56%
    07:00 +9°C° 0 mm 0 m/S 692 mmHg 50%
    08:00 +11°C° 0 mm 1 m/S 692 mmHg 44%
    09:00 +13°C° 0 mm 1 m/S 692 mmHg 38%
    10:00 +14°C° 0 mm 1 m/S 691 mmHg 35%
    11:00 +15°C° 0 mm 2 m/S 691 mmHg 32%
    12:00 +16°C° 0 mm 2 m/S 691 mmHg 30%
    13:00 +16°C° 0 mm 2 m/S 691 mmHg 29%
    14:00 +17°C° 0 mm 2 m/S 690 mmHg 28%
    15:00 +17°C° 0 mm 2 m/S 690 mmHg 27%
    16:00 +17°C° 0 mm 2 m/S 690 mmHg 28%
    17:00 +16°C° 0 mm 2 m/S 690 mmHg 29%
    18:00 +16°C° 0 mm 1 m/S 690 mmHg 30%
    19:00 +14°C° 0 mm 1 m/S 690 mmHg 33%
    20:00 +13°C° 0 mm 1 m/S 691 mmHg 36%
    21:00 +11°C° 0 mm 1 m/S 691 mmHg 39%
    22:00 +11°C° 0 mm 1 m/S 691 mmHg 42%
    23:00 +10°C° 0 mm 1 m/S 691 mmHg 44%

    27 April, Samstag

    Zeit Temperatur Niederschläge Wind Luftdruck Luftfeuchtigkeit
    00:00 +10°C° 0 mm 1 m/S 691 mmHg 46%
    01:00 +9°C° 0 mm 1 m/S 691 mmHg 49%
    02:00 +8°C° 0 mm 0 m/S 691 mmHg 51%
    03:00 +7°C° 0 mm 0 m/S 691 mmHg 54%
    04:00 +7°C° 0 mm 0 m/S 691 mmHg 55%
    05:00 +8°C° 0 mm 0 m/S 691 mmHg 56%
    06:00 +8°C° 0 mm 0 m/S 691 mmHg 58%
    07:00 +11°C° 0 mm 1 m/S 691 mmHg 51%
    08:00 +12°C° 0 mm 1 m/S 691 mmHg 45%
    09:00 +14°C° 0 mm 1 m/S 690 mmHg 39%
    10:00 +15°C° 0 mm 2 m/S 690 mmHg 36%
    11:00 +16°C° 0 mm 2 m/S 690 mmHg 33%
    12:00 +17°C° 0 mm 3 m/S 690 mmHg 30%
    13:00 +18°C° 0 mm 3 m/S 690 mmHg 29%
    14:00 +18°C° 0 mm 3 m/S 689 mmHg 28%
    15:00 +19°C° 0 mm 3 m/S 689 mmHg 27%
    16:00 +18°C° 0 mm 3 m/S 689 mmHg 28%
    17:00 +17°C° 0 mm 3 m/S 689 mmHg 29%
    18:00 +17°C° 0 mm 2 m/S 689 mmHg 31%
    19:00 +15°C° 0 mm 2 m/S 689 mmHg 34%
    20:00 +14°C° 0 mm 1 m/S 689 mmHg 37%
    21:00 +12°C° 0 mm 1 m/S 689 mmHg 40%
    22:00 +11°C° 0 mm 1 m/S 689 mmHg 41%
    23:00 +11°C° 0 mm 1 m/S 689 mmHg 43%

    28 April, Sonntag

    Zeit Temperatur Niederschläge Wind Luftdruck Luftfeuchtigkeit
    00:00 +11°C° 0 mm 1 m/S 689 mmHg 44%
    01:00 +10°C° 0 mm 1 m/S 689 mmHg 45%
    02:00 +10°C° 0 mm 1 m/S 689 mmHg 47%
    03:00 +9°C° 0 mm 1 m/S 688 mmHg 48%
    04:00 +10°C° 0 mm 1 m/S 688 mmHg 47%
    05:00 +10°C° 0 mm 1 m/S 688 mmHg 47%
    06:00 +10°C° 0 mm 1 m/S 688 mmHg 46%
    07:00 +12°C° 0 mm 1 m/S 688 mmHg 42%
    08:00 +14°C° 0 mm 1 m/S 688 mmHg 37%
    09:00 +16°C° 0 mm 2 m/S 688 mmHg 33%
    10:00 +17°C° 0 mm 2 m/S 688 mmHg 31%
    11:00 +18°C° 0 mm 2 m/S 688 mmHg 29%
    12:00 +19°C° 0 mm 2 m/S 688 mmHg 28%
    13:00 +20°C° 0 mm 2 m/S 688 mmHg 27%
    14:00 +20°C° 0 mm 3 m/S 687 mmHg 27%
    15:00 +21°C° 0 mm 3 m/S 687 mmHg 27%
    16:00 +20°C° 0.1 mm 3 m/S 687 mmHg 28%
    17:00 +20°C° 0.1 mm 3 m/S 687 mmHg 30%
    18:00 +19°C° 0.1 mm 3 m/S 687 mmHg 32%
    19:00 +18°C° 0 mm 3 m/S 687 mmHg 35%
    20:00 +16°C° 0 mm 2 m/S 687 mmHg 38%
    21:00 +14°C° 0 mm 2 m/S 688 mmHg 40%
    22:00 +14°C° 0 mm 1 m/S 688 mmHg 42%
    23:00 +13°C° 0 mm 1 m/S 688 mmHg 43%

    29 April, Montag

    Zeit Temperatur Niederschläge Wind Luftdruck Luftfeuchtigkeit
    00:00 +13°C° 0 mm 1 m/S 688 mmHg 44%
    01:00 +13°C° 0 mm 1 m/S 688 mmHg 45%
    02:00 +13°C° 0 mm 1 m/S 688 mmHg 45%
    03:00 +13°C° 0 mm 1 m/S 687 mmHg 46%
    04:00 +13°C° 0 mm 1 m/S 688 mmHg 47%
    05:00 +13°C° 0 mm 1 m/S 688 mmHg 48%
    06:00 +13°C° 0 mm 1 m/S 688 mmHg 49%
    07:00 +15°C° 0 mm 1 m/S 688 mmHg 46%
    08:00 +16°C° 0 mm 1 m/S 688 mmHg 43%
    09:00 +19°C° 0 mm 1 m/S 688 mmHg 40%
    10:00 +20°C° 0 mm 1 m/S 688 mmHg 38%
    11:00 +20°C° 0 mm 2 m/S 688 mmHg 37%
    12:00 +21°C° 0 mm 2 m/S 688 mmHg 35%
    13:00 +23°C° 0 mm 2 m/S 687 mmHg 34%
    14:00 +23°C° 0 mm 2 m/S 687 mmHg 33%
    15:00 +24°C° 0 mm 2 m/S 687 mmHg 31%
    16:00 +23°C° 0 mm 2 m/S 687 mmHg 33%
    17:00 +23°C° 0 mm 2 m/S 687 mmHg 35%
    18:00 +21°C° 0 mm 3 m/S 687 mmHg 37%
    19:00 +20°C° 0 mm 2 m/S 687 mmHg 41%
    20:00 +18°C° 0 mm 2 m/S 687 mmHg 44%
    21:00 +16°C° 0 mm 2 m/S 688 mmHg 48%
    22:00 +16°C° 0 mm 1 m/S 687 mmHg 49%
    23:00 +15°C° 0 mm 1 m/S 687 mmHg 50%
    Mehr zeigen